KC0AFB Weather Reports


time (UTC)temp
C
wind
direction
speed
KPH
gust
KPH
rain 1hr
cm
rain 24hr
cm
rain mn
cm
humidity
%
barometer
mb
20260508102938 5 69 1.6 1.6 0.00 0.00 0.00 55 1007.7
20260508102437 5 64 1.6 1.6 0.00 0.00 0.00 54 1008.1
20260508101933 5 92 1.6 1.6 0.00 0.00 0.00 53 1007.9
20260508101431 6 92 0.0 0.0 0.00 0.00 0.00 52 1007.8
20260508100928 6 61 0.0 0.0 0.00 0.00 0.00 50 1007.9
20260508100427 5 13 4.8 4.8 0.00 0.00 0.00 49 1008.1
20260508095923 5 28 3.2 3.2 0.00 0.00 0.00 51 1008.1
20260508095421 5 356 3.2 3.2 0.00 0.00 0.00 51 1008.2
20260508094917 5 63 0.0 0.0 0.00 0.00 0.00 50 1008.1
20260508094414 5 77 0.0 0.0 0.00 0.00 0.00 54 1008.1
20260508093910 6 76 0.0 0.0 0.00 0.00 0.00 50 1008.0
20260508093408 5 76 0.0 0.0 0.00 0.00 0.00 47 1008.1
20260508092905 5 76 0.0 1.6 0.00 0.00 0.00 49 1008.2
20260508092403 5 76 0.0 0.0 0.00 0.00 0.00 49 1008.0
20260508091902 5 64 1.6 1.6 0.00 0.00 0.00 50 1007.9
20260508091358 5 58 1.6 1.6 0.00 0.00 0.00 50 1008.1
20260508090855 5 34 1.6 1.6 0.00 0.00 0.00 50 1008.1
20260508090354 6 34 1.6 1.6 0.00 0.00 0.00 46 1008.2
20260508085849 7 15 1.6 3.2 0.00 0.00 0.00 44 1008.0
20260508085346 6 58 1.6 1.6 0.00 0.00 0.00 44 1008.2
20260508084843 6 60 1.6 1.6 0.00 0.00 0.00 46 1008.1
20260508084339 5 59 3.2 3.2 0.00 0.00 0.00 50 1008.1
20260508083837 5 74 0.0 0.0 0.00 0.00 0.00 50 1008.0
20260508083335 5 68 1.6 1.6 0.00 0.00 0.00 51 1008.0
20260508082834 5 81 0.0 1.6 0.00 0.00 0.00 52 1008.3
20260508082332 6 60 0.0 1.6 0.00 0.00 0.00 47 1008.4
20260508081829 5 48 1.6 1.6 0.00 0.00 0.00 47 1008.5
20260508081326 5 59 3.2 3.2 0.00 0.00 0.00 48 1008.4
20260508080823 5 65 1.6 3.2 0.00 0.00 0.00 49 1008.5
20260508080321 6 60 3.2 3.2 0.00 0.00 0.00 47 1008.7
20260508075817 6 55 3.2 3.2 0.00 0.00 0.00 47 1008.7
20260508075314 6 47 1.6 1.6 0.00 0.00 0.00 47 1008.7
20260508074812 6 51 1.6 1.6 0.00 0.00 0.00 46 1008.7
20260508074309 7 32 3.2 3.2 0.00 0.00 0.00 43 1008.8
20260508073806 7 7 3.2 3.2 0.00 0.00 0.00 43 1008.6
20260508073304 7 10 3.2 3.2 0.00 0.00 0.00 43 1008.7
20260508072800 6 41 1.6 1.6 0.00 0.00 0.00 45 1008.5
20260508072257 7 56 1.6 1.6 0.00 0.00 0.00 46 1008.6
20260508071754 6 55 1.6 1.6 0.00 0.00 0.00 45 1008.7
20260508071252 6 59 3.2 3.2 0.00 0.00 0.00 46 1008.6
20260508070749 7 73 0.0 0.0 0.00 0.00 0.00 46 1008.6
20260508070248 6 64 1.6 1.6 0.00 0.00 0.00 46 1008.9
20260508065744 7 113 0.0 0.0 0.00 0.00 0.00 45 1008.6
20260508065243 7 133 0.0 1.6 0.00 0.00 0.00 43 1008.8
20260508064740 7 132 0.0 1.6 0.00 0.00 0.00 43 1009.0
20260508064238 8 133 0.0 1.6 0.00 0.00 0.00 44 1008.9
20260508063735 8 103 1.6 1.6 0.00 0.00 0.00 42 1008.9
20260508063233 8 120 3.2 3.2 0.00 0.00 0.00 42 1008.8
20260508062730 8 132 4.8 8.0 0.00 0.00 0.00 41 1008.7
20260508062228 8 143 6.4 8.0 0.00 0.00 0.00 41 1008.7
20260508061724 8 128 6.4 8.0 0.00 0.00 0.00 40 1008.7
20260508061222 8 109 3.2 3.2 0.00 0.00 0.00 41 1008.9
20260508060718 8 115 4.8 4.8 0.00 0.00 0.00 41 1008.7
20260508060216 8 133 4.8 4.8 0.00 0.00 0.00 41 1008.7
20260508055711 8 124 3.2 3.2 0.00 0.00 0.00 40 1008.8
20260508055208 9 101 3.2 3.2 0.00 0.00 0.00 39 1008.8
20260508054705 9 126 4.8 4.8 0.00 0.00 0.00 40 1009.0
20260508054203 9 140 4.8 4.8 0.00 0.00 0.00 39 1008.9
20260508053659 10 138 4.8 4.8 0.00 0.00 0.00 38 1008.8
20260508053157 10 95 4.8 4.8 0.00 0.00 0.00 37 1009.3
20260508052654 10 92 6.4 8.0 0.00 0.00 0.00 37 1009.0
20260508052151 10 131 4.8 8.0 0.00 0.00 0.00 36 1009.3
20260508051647 10 98 8.0 9.7 0.00 0.00 0.00 37 1009.0
20260508051143 10 130 6.4 8.0 0.00 0.00 0.00 38 1008.8
20260508050639 10 102 6.4 8.0 0.00 0.00 0.00 36 1008.9
20260508050137 10 119 4.8 4.8 0.00 0.00 0.00 36 1008.7
20260508045632 10 76 3.2 4.8 0.00 0.00 0.00 37 1008.8
20260508045130 10 78 9.7 11.3 0.00 0.00 0.00 36 1009.0
20260508044627 10 90 8.0 9.7 0.00 0.00 0.00 36 1008.8
20260508044123 10 61 6.4 9.7 0.00 0.00 0.00 37 1009.0
20260508043620 10 56 8.0 11.3 0.00 0.00 0.00 37 1009.2
20260508043118 10 65 8.0 11.3 0.00 0.00 0.00 37 1009.0
20260508042614 10 71 6.4 8.0 0.00 0.00 0.00 37 1009.2
20260508042112 10 56 6.4 9.7 0.00 0.00 0.00 37 1009.3
20260508041607 10 39 6.4 8.0 0.00 0.00 0.00 37 1009.3
20260508041104 10 51 6.4 8.0 0.00 0.00 0.00 36 1009.6
20260508040601 11 26 6.4 8.0 0.00 0.00 0.00 35 1009.7
20260508040059 11 47 6.4 8.0 0.00 0.00 0.00 35 1009.4
20260508035555 11 45 3.2 3.2 0.00 0.00 0.00 34 1009.5
20260508035053 11 33 3.2 3.2 0.00 0.00 0.00 34 1009.5
20260508034549 11 52 3.2 3.2 0.00 0.00 0.00 34 1009.7
20260508034047 10 20 3.2 3.2 0.00 0.00 0.00 36 1009.7
20260508033544 10 49 1.6 1.6 0.00 0.00 0.00 37 1009.7
20260508033043 10 49 1.6 1.6 0.00 0.00 0.00 38 1009.5
20260508032538 10 201 1.6 1.6 0.00 0.00 0.00 39 1009.6
20260508032036 11 65 0.0 0.0 0.00 0.00 0.00 35 1009.5
20260508031533 10 30 1.6 1.6 0.00 0.00 0.00 35 1009.5
20260508031029 11 52 0.0 1.6 0.00 0.00 0.00 35 1009.6
20260508030526 11 40 1.6 1.6 0.00 0.00 0.00 35 1009.5
20260508030024 11 26 1.6 1.6 0.00 0.00 0.00 35 1009.4
20260508025519 10 58 0.0 1.6 0.00 0.00 0.00 35 1009.4
20260508025017 10 62 0.0 0.0 0.00 0.00 0.00 36 1009.3
20260508024513 10 58 0.0 0.0 0.00 0.00 0.00 35 1009.5
20260508024010 10 58 0.0 0.0 0.00 0.00 0.00 36 1009.4
20260508023506 10 53 0.0 1.6 0.00 0.00 0.00 36 1009.0
20260508023004 11 44 0.0 0.0 0.00 0.00 0.00 36 1009.4
20260508022459 11 17 1.6 1.6 0.00 0.00 0.00 36 1009.0
20260508021956 11 46 1.6 1.6 0.00 0.00 0.00 36 1008.9
20260508021452 11 43 0.0 1.6 0.00 0.00 0.00 36 1009.0
20260508020948 11 27 1.6 3.2 0.00 0.00 0.00 35 1009.0
20260508020446 12 27 3.2 3.2 0.00 0.00 0.00 35 1008.9
20260508015943 12 31 1.6 1.6 0.00 0.00 0.00 35 1008.7
20260508015441 12 54 1.6 1.6 0.00 0.00 0.00 35 1008.8
20260508014937 12 45 1.6 1.6 0.00 0.00 0.00 35 1008.8
20260508014434 12 39 1.6 3.2 0.00 0.00 0.00 36 1008.8
20260508013930 12 22 1.6 1.6 0.00 0.00 0.00 36 1008.6
20260508013426 12 23 3.2 3.2 0.00 0.00 0.00 36 1008.7
20260508012924 12 24 1.6 1.6 0.00 0.00 0.00 35 1008.6
20260508012420 13 335 4.8 4.8 0.00 0.00 0.00 34 1008.7
20260508011918 13 22 1.6 3.2 0.00 0.00 0.00 33 1008.6
20260508011416 13 356 4.8 4.8 0.00 0.00 0.00 32 1008.6
20260508010913 13 347 4.8 4.8 0.00 0.00 0.00 33 1008.6
20260508010410 14 343 3.2 4.8 0.00 0.00 0.00 33 1008.6
20260508005907 14 352 8.0 9.7 0.00 0.00 0.00 31 1008.6
20260508005404 15 336 6.4 8.0 0.00 0.00 0.00 31 1008.4
20260508004900 15 352 8.0 8.0 0.00 0.00 0.00 30 1008.4
20260508004356 15 338 4.8 4.8 0.00 0.00 0.00 30 1008.5
20260508003853 15 336 9.7 12.9 0.00 0.00 0.00 29 1008.2
20260508003350 15 326 6.4 8.0 0.00 0.00 0.00 30 1008.6
20260508002848 16 9 4.8 9.7 0.00 0.00 0.00 30 1008.4
20260508002344 16 347 6.4 9.7 0.00 0.00 0.00 29 1008.3
20260508001840 15 324 8.0 9.7 0.00 0.00 0.00 28 1008.5
20260508001336 16 284 9.7 12.9 0.00 0.00 0.00 27 1008.7
20260508000833 16 298 11.3 12.9 0.00 0.00 0.00 27 1008.5
20260508000329 16 320 8.0 11.3 0.00 0.00 0.00 27 1008.5
20260507235826 16 280 8.0 11.3 0.00 0.00 0.00 29 1008.7
20260507235323 16 351 6.4 9.7 0.00 0.00 0.00 28 1008.8
20260507234820 16 348 9.7 11.3 0.00 0.00 0.00 27 1008.6
20260507234317 16 328 9.7 11.3 0.00 0.00 0.00 26 1008.7
20260507233813 16 348 14.5 16.1 0.00 0.00 0.00 25 1008.8
20260507233311 16 32 12.9 14.5 0.00 0.00 0.00 26 1008.7
20260507232809 16 354 4.8 4.8 0.00 0.00 0.00 29 1008.6
20260507232306 16 312 11.3 11.3 0.00 0.00 0.00 26 1008.8
20260507231802 16 340 12.9 14.5 0.00 0.00 0.00 26 1008.7
20260507231259 16 23 8.0 11.3 0.00 0.00 0.00 26 1008.7
20260507230755 16 325 12.9 16.1 0.00 0.00 0.00 27 1008.6
20260507230253 16 346 9.7 11.3 0.00 0.00 0.00 26 1008.6
20260507225752 16 276 9.7 12.9 0.00 0.00 0.00 24 1008.8
20260507225249 17 294 6.4 8.0 0.00 0.00 0.00 27 1008.7
20260507224744 16 324 11.3 11.3 0.00 0.00 0.00 27 1008.7
20260507224241 16 349 12.9 14.5 0.00 0.00 0.00 27 1008.8
20260507223738 16 256 6.4 8.0 0.00 0.00 0.00 26 1009.0
20260507223234 16 302 16.1 20.9 0.00 0.00 0.00 28 1008.8
20260507222731 16 301 11.3 12.9 0.00 0.00 0.00 27 1008.9
20260507222228 16 292 16.1 20.9 0.00 0.00 0.00 26 1009.0
20260507221725 16 286 14.5 16.1 0.00 0.00 0.00 26 1008.9
20260507221221 16 315 17.7 20.9 0.00 0.00 0.00 26 1008.9
20260507220717 16 326 12.9 14.5 0.00 0.00 0.00 28 1009.0
20260507220216 16 6 11.3 14.5 0.00 0.00 0.00 28 1009.0
20260507215711 16 330 17.7 22.5 0.00 0.00 0.00 26 1008.9
20260507215209 16 293 11.3 11.3 0.00 0.00 0.00 28 1009.5
20260507214707 16 274 14.5 16.1 0.00 0.00 0.00 28 1009.0
20260507214203 16 318 11.3 12.9 0.00 0.00 0.00 30 1009.2
20260507213659 16 262 8.0 12.9 0.00 0.00 0.00 28 1009.4
20260507213156 16 253 8.0 11.3 0.00 0.00 0.00 30 1009.5
20260507212652 16 317 14.5 16.1 0.00 0.00 0.00 29 1009.5
20260507212149 16 288 12.9 16.1 0.00 0.00 0.00 29 1009.4
20260507211646 16 307 8.0 9.7 0.00 0.00 0.00 28 1009.6
20260507211141 16 236 4.8 8.0 0.00 0.00 0.00 27 1009.8
20260507210639 16 347 9.7 14.5 0.00 0.00 0.00 28 1009.6
20260507210135 16 309 11.3 12.9 0.00 0.00 0.00 28 1009.7
20260507205632 16 313 14.5 17.7 0.00 0.00 0.00 28 1009.5
20260507205129 16 300 14.5 17.7 0.00 0.00 0.00 28 1009.6
20260507204625 16 264 8.0 9.7 0.00 0.00 0.00 29 1009.7
20260507204123 16 308 14.5 16.1 0.00 0.00 0.00 28 1009.7
20260507203621 16 299 8.0 9.7 0.00 0.00 0.00 28 1009.9
20260507203118 15 303 9.7 11.3 0.00 0.00 0.00 30 1009.8
20260507202613 16 303 6.4 9.7 0.00 0.00 0.00 33 1010.0
20260507202110 16 321 20.9 27.4 0.00 0.00 0.00 29 1010.1
20260507201605 15 237 8.0 9.7 0.00 0.00 0.00 27 1010.3
20260507201102 15 282 8.0 11.3 0.00 0.00 0.00 30 1010.2
20260507200557 15 296 17.7 20.9 0.00 0.00 0.00 29 1010.1
20260507200054 15 307 11.3 11.3 0.00 0.00 0.00 31 1009.9
20260507195551 15 294 16.1 17.7 0.00 0.00 0.00 30 1010.1
20260507195048 15 280 14.5 20.9 0.00 0.00 0.00 31 1010.2
20260507194544 15 333 11.3 16.1 0.00 0.00 0.00 32 1010.3
20260507194040 15 297 8.0 9.7 0.00 0.00 0.00 32 1010.4
20260507193538 15 243 11.3 14.5 0.00 0.00 0.00 29 1010.1
20260507193035 15 276 11.3 12.9 0.00 0.00 0.00 32 1010.4
20260507192531 15 250 12.9 14.5 0.00 0.00 0.00 28 1010.5
20260507192028 15 306 11.3 12.9 0.00 0.00 0.00 28 1010.3
20260507191523 15 318 9.7 11.3 0.00 0.00 0.00 28 1010.2
20260507191021 15 294 14.5 16.1 0.00 0.00 0.00 31 1010.1
20260507190518 15 243 6.4 8.0 0.00 0.00 0.00 32 1010.3
20260507190017 15 301 12.9 14.5 0.00 0.00 0.00 30 1010.5
20260507185514 15 257 12.9 16.1 0.00 0.00 0.00 30 1010.5
20260507185010 15 238 4.8 4.8 0.00 0.00 0.00 32 1010.5
20260507184509 15 286 11.3 12.9 0.00 0.00 0.00 31 1010.4
20260507184007 15 315 17.7 24.1 0.00 0.00 0.00 30 1010.5
20260507183502 15 324 11.3 12.9 0.00 0.00 0.00 33 1010.3
20260507183000 14 330 8.0 11.3 0.00 0.00 0.00 31 1010.7
20260507182455 14 277 11.3 11.3 0.00 0.00 0.00 31 1010.7
20260507181951 13 300 14.5 16.1 0.00 0.00 0.00 30 1010.8
20260507181448 15 237 9.7 12.9 0.00 0.00 0.00 31 1010.8
20260507180945 14 304 16.1 17.7 0.00 0.00 0.00 31 1010.8
20260507180441 14 319 8.0 11.3 0.00 0.00 0.00 32 1010.9
20260507175938 13 304 4.8 4.8 0.00 0.00 0.00 32 1010.9
20260507175434 13 336 14.5 16.1 0.00 0.00 0.00 33 1011.2
20260507174932 14 295 14.5 20.9 0.00 0.00 0.00 33 1011.1
20260507174429 13 233 6.4 8.0 0.00 0.00 0.00 35 1011.1
20260507173927 13 14 6.4 9.7 0.00 0.00 0.00 38 1011.2
20260507173424 13 223 9.7 11.3 0.00 0.00 0.00 38 1011.1
20260507172920 12 198 3.2 3.2 0.00 0.00 0.00 40 1011.2
20260507172417 12 240 4.8 8.0 0.00 0.00 0.00 35 1011.3
20260507171913 12 258 4.8 8.0 0.00 0.00 0.00 38 1011.3
20260507171409 12 277 6.4 8.0 0.00 0.00 0.00 37 1011.4
20260507170907 12 283 4.8 9.7 0.00 0.00 0.00 40 1011.3
20260507170403 12 284 14.5 17.7 0.00 0.00 0.00 39 1011.5
20260507165859 12 178 4.8 8.0 0.00 0.00 0.00 39 1011.7
20260507165355 11 141 1.6 3.2 0.00 0.00 0.00 37 1011.9
20260507164851 12 322 9.7 12.9 0.00 0.00 0.00 36 1011.9
20260507164349 12 228 8.0 8.0 0.00 0.00 0.00 40 1011.6
20260507163846 11 289 4.8 4.8 0.00 0.00 0.00 39 1012.0
20260507163343 11 339 8.0 11.3 0.00 0.00 0.00 41 1012.0
20260507162840 11 277 11.3 12.9 0.00 0.00 0.00 43 1012.0
20260507162335 11 286 6.4 11.3 0.00 0.00 0.00 46 1012.0
20260507161832 11 290 8.0 9.7 0.00 0.00 0.00 43 1012.1
20260507161329 10 174 4.8 8.0 0.00 0.00 0.00 49 1012.0
20260507160825 10 237 8.0 9.7 0.00 0.00 0.00 47 1012.1
20260507160321 10 268 6.4 8.0 0.00 0.00 0.00 49 1012.3
20260507155818 10 237 4.8 9.7 0.00 0.00 0.00 48 1012.2
20260507155314 10 240 8.0 9.7 0.00 0.00 0.00 48 1012.2
20260507154810 9 217 4.8 4.8 0.00 0.00 0.00 48 1012.4
20260507154308 9 312 6.4 8.0 0.00 0.00 0.00 50 1012.3
20260507153804 8 236 8.0 9.7 0.00 0.00 0.00 50 1012.3
20260507153301 8 284 1.6 3.2 0.00 0.00 0.00 50 1012.3
20260507152757 8 236 6.4 8.0 0.00 0.00 0.00 52 1012.5
20260507152254 8 148 1.6 1.6 0.00 0.00 0.00 54 1012.4
20260507151749 8 214 8.0 9.7 0.00 0.00 0.00 50 1012.2
20260507151246 8 254 4.8 4.8 0.00 0.00 0.00 51 1012.4
20260507150743 7 226 3.2 3.2 0.00 0.00 0.00 53 1012.6
20260507150240 7 249 3.2 4.8 0.00 0.00 0.00 52 1012.5
20260507145736 7 283 6.4 8.0 0.00 0.00 0.00 52 1012.6
20260507145232 7 240 8.0 9.7 0.00 0.00 0.00 51 1012.4
20260507144730 7 253 6.4 8.0 0.00 0.00 0.00 52 1012.4
20260507144227 6 231 3.2 3.2 0.00 0.00 0.00 52 1012.5
20260507143723 6 301 4.8 4.8 0.00 0.00 0.00 53 1012.5
20260507143221 6 174 1.6 1.6 0.00 0.00 0.00 53 1012.5
20260507142717 6 286 3.2 3.2 0.00 0.00 0.00 54 1012.4
20260507142214 6 127 0.0 1.6 0.00 0.00 0.00 58 1012.6
20260507141710 5 238 1.6 1.6 0.00 0.00 0.00 58 1012.5
20260507141207 5 133 1.6 1.6 0.00 0.00 0.00 58 1012.5
20260507140703 5 219 3.2 4.8 0.00 0.00 0.00 59 1012.5
20260507140201 5 209 1.6 3.2 0.00 0.00 0.00 59 1012.3
20260507135657 5 172 4.8 4.8 0.00 0.00 0.00 60 1012.5
20260507135155 4 200 3.2 3.2 0.00 0.00 0.00 62 1012.5
20260507134651 5 154 1.6 3.2 0.00 0.00 0.00 62 1012.3
20260507134147 3 73 1.6 1.6 0.00 0.00 0.00 64 1012.1
20260507133643 4 44 1.6 1.6 0.00 0.00 0.00 63 1012.3
20260507133141 3 151 1.6 1.6 0.00 0.00 0.00 61 1012.2
20260507132638 3 79 0.0 0.0 0.00 0.00 0.00 61 1012.3
20260507132134 3 105 0.0 0.0 0.00 0.00 0.00 61 1012.3
20260507131631 3 98 0.0 0.0 0.00 0.00 0.00 61 1012.5
20260507131129 3 103 0.0 0.0 0.00 0.00 0.00 61 1012.3
20260507130625 3 100 0.0 0.0 0.00 0.00 0.00 61 1012.1
20260507130123 3 88 0.0 0.0 0.00 0.00 0.00 61 1012.2
20260507125622 3 82 0.0 0.0 0.00 0.00 0.00 61 1012.1
20260507125119 3 86 0.0 0.0 0.00 0.00 0.00 61 1011.9
20260507124615 3 81 0.0 0.0 0.00 0.00 0.00 60 1012.1
20260507124113 3 74 0.0 0.0 0.00 0.00 0.00 62 1012.2
20260507123611 2 74 0.0 0.0 0.00 0.00 0.00 64 1012.0
20260507123107 0 74 0.0 0.0 0.00 0.00 0.00 68 1012.0
20260507122603 0 74 0.0 0.0 0.00 0.00 0.00 67 1012.1
20260507122059 0 73 0.0 0.0 0.00 0.00 0.00 70 1011.8
20260507121554 -1 68 0.0 0.0 0.00 0.00 0.00 70 1011.9
20260507121051 -1 85 0.0 0.0 0.00 0.00 0.00 70 1011.8
20260507120547 -1 80 0.0 0.0 0.00 0.00 0.00 70 1011.8
20260507120044 -1 81 0.0 0.0 0.00 0.00 0.00 70 1011.7
20260507115540 0 75 1.6 1.6 0.00 0.00 0.00 70 1011.5
20260507115036 -1 75 1.6 1.6 0.00 0.00 0.00 71 1011.5
20260507114532 -1 72 1.6 1.6 0.00 0.00 0.00 72 1011.5
20260507114030 -1 73 3.2 3.2 0.00 0.00 0.00 72 1011.5
20260507113527 -1 73 1.6 3.2 0.00 0.00 0.00 73 1011.5
20260507113024 -1 71 1.6 1.6 0.00 0.00 0.00 72 1011.5
20260507112521 -1 69 1.6 3.2 0.00 0.00 0.00 72 1011.4
20260507112018 -1 70 1.6 3.2 0.00 0.00 0.00 72 1011.5
20260507111515 -1 68 3.2 3.2 0.00 0.00 0.00 72 1011.5
20260507111011 -1 75 1.6 3.2 0.00 0.00 0.00 72 1011.5
20260507110508 -1 62 1.6 3.2 0.00 0.00 0.00 72 1011.6
20260507110005 -1 72 1.6 1.6 0.00 0.00 0.00 73 1011.5
20260507105501 -1 75 1.6 1.6 0.00 0.00 0.00 73 1011.7
20260507104958 -1 68 1.6 1.6 0.00 0.00 0.00 73 1011.5
20260507104455 -1 81 0.0 1.6 0.00 0.00 0.00 73 1011.6
20260507103950 -2 82 0.0 1.6 0.00 0.00 0.00 73 1011.7
20260507103447 -2 75 1.6 1.6 0.00 0.00 0.00 74 1011.7